GW4278 Weather Reports


time (UTC)temp
C
wind
direction
speed
KPH
gust
KPH
rain 1hr
cm
rain 24hr
cm
rain mn
cm
humidity
%
barometer
mb
20260505052001 4 250 8.0 12.9 0.00 0.64 0.64 89 1014.0
20260505051507 4 263 3.2 9.7 0.00 0.64 0.64 89 1013.9
20260505051002 4 244 3.2 6.4 0.00 0.64 0.64 89 1013.8
20260505050503 4 273 3.2 4.8 0.00 0.64 0.64 89 1013.8
20260505041504 5 294 0.0 3.2 0.00 0.64 0.64 89 1013.9
20260505041001 5 294 0.0 4.8 0.00 0.64 0.64 89 1014.0
20260505040506 5 294 0.0 9.7 0.00 0.64 0.64 89 1013.9
20260505040007 5 276 3.2 11.3 0.00 0.64 0.64 89 1013.9
20260505035511 5 232 3.2 11.3 0.00 0.64 0.64 89 1013.8
20260505035008 4 250 4.8 12.9 0.00 0.64 0.64 89 1013.8
20260505034511 4 246 4.8 12.9 0.00 0.64 0.64 89 1013.9
20260505034008 4 279 4.8 14.5 0.00 0.64 0.64 89 1013.9
20260505033506 4 259 8.0 14.5 0.00 0.64 0.64 89 1013.9
20260505033018 4 271 9.7 14.5 0.00 0.64 0.64 89 1014.0
20260505032507 4 251 8.0 12.9 0.00 0.64 0.64 89 1013.9
20260505032009 4 253 1.6 4.8 0.00 0.64 0.64 89 1013.8
20260505031504 4 301 0.0 3.2 0.00 0.64 0.64 88 1013.8
20260505031007 4 300 0.0 3.2 0.00 0.64 0.64 88 1013.7
20260505030503 4 301 0.0 3.2 0.00 0.64 0.64 88 1013.7
20260505030006 5 268 0.0 4.8 0.00 0.64 0.64 88 1013.7
20260505025505 5 294 1.6 4.8 0.00 0.64 0.64 87 1013.6
20260505025005 5 304 0.0 3.2 0.00 0.64 0.64 87 1013.6
20260505024509 5 304 0.0 3.2 0.00 0.64 0.64 87 1013.5
20260505024008 5 352 0.0 8.0 0.00 0.64 0.64 87 1013.5
20260505023506 5 360 0.0 12.9 0.00 0.64 0.64 86 1013.4
20260505023011 5 325 3.2 12.9 0.03 0.64 0.64 86 1013.3
20260505022508 5 319 3.2 14.5 0.05 0.64 0.64 86 1013.2
20260505022007 5 283 6.4 14.5 0.05 0.64 0.64 87 1013.2
20260505021512 5 279 4.8 9.7 0.05 0.64 0.64 87 1013.1
20260505021007 5 288 4.8 8.0 0.05 0.64 0.64 88 1013.2
20260505020506 5 243 3.2 6.4 0.05 0.64 0.64 88 1013.2
20260505020004 5 284 1.6 4.8 0.05 0.64 0.64 87 1013.3
20260505015502 5 347 1.6 4.8 0.05 0.64 0.64 87 1013.2
20260505015004 5 352 0.0 3.2 0.08 0.64 0.64 87 1013.1
20260505014509 5 352 1.6 6.4 0.08 0.64 0.64 87 1013.0
20260505014005 5 332 0.0 11.3 0.10 0.64 0.64 86 1013.2
20260505013505 5 360 1.6 11.3 0.13 0.64 0.64 86 1013.4
20260505013013 5 302 3.2 9.7 0.10 0.61 0.61 86 1013.4
20260505012507 5 265 1.6 9.7 0.10 0.58 0.58 85 1013.6
20260505012008 5 290 4.8 9.7 0.13 0.58 0.58 86 1013.8
20260505011520 5 273 3.2 11.3 0.18 0.58 0.58 86 1013.7
20260505011007 5 301 6.4 11.3 0.23 0.58 0.58 85 1013.7
20260505010507 5 243 4.8 9.7 0.30 0.58 0.58 86 1013.7
20260505010018 5 319 0.0 3.2 0.33 0.58 0.58 86 1013.7
20260505005508 5 319 0.0 4.8 0.36 0.58 0.58 84 1013.7
20260505005007 5 319 0.0 4.8 0.36 0.56 0.56 84 1013.7
20260505004534 6 319 1.6 4.8 0.38 0.56 0.56 86 1013.8
20260505004005 6 325 0.0 3.2 0.38 0.53 0.53 86 1013.8
20260505003507 6 325 0.0 3.2 0.36 0.51 0.51 86 1013.9
20260505003010 6 325 0.0 3.2 0.38 0.51 0.51 85 1013.9
20260505002506 6 325 0.0 3.2 0.36 0.48 0.48 85 1013.8
20260505002007 6 325 0.0 3.2 0.38 0.46 0.46 85 1013.8
20260505001513 6 325 0.0 3.2 0.36 0.41 0.41 85 1013.9
20260505001008 6 325 0.0 3.2 0.36 0.36 0.36 84 1013.8
20260505000507 6 325 0.0 3.2 0.28 0.28 0.28 84 1013.9
20260505000024 6 325 0.0 3.2 0.25 0.25 0.25 83 1013.9
20260504235506 6 325 0.0 3.2 0.23 0.23 0.23 82 1013.9
20260504235008 6 325 0.0 3.2 0.20 0.20 0.20 81 1013.9
20260504234528 7 325 0.0 3.2 0.18 0.18 0.18 80 1013.8
20260504234006 7 325 0.0 3.2 0.15 0.15 0.15 79 1013.8
20260504233507 7 325 1.6 12.9 0.15 0.15 0.15 78 1013.9
20260504233006 7 351 1.6 12.9 0.13 0.13 0.13 75 1013.8
20260504232504 7 11 4.8 12.9 0.13 0.13 0.13 71 1013.6
20260504232004 8 32 6.4 14.5 0.08 0.08 0.08 68 1013.5
20260504231530 9 329 6.4 14.5 0.05 0.05 0.05 66 1013.4
20260504231007 10 339 3.2 11.3 0.00 0.00 0.00 59 1013.1
20260504230506 10 299 3.2 8.0 0.00 0.00 0.00 61 1012.8
20260504230015 10 74 0.0 6.4 0.00 0.00 0.00 57 1012.5
20260504225513 10 74 0.0 9.7 0.00 0.00 0.00 57 1012.4
20260504225009 10 74 3.2 9.7 0.00 0.00 0.00 55 1012.4
20260504224519 10 114 1.6 11.3 0.00 0.00 0.00 57 1012.2
20260504224007 10 86 3.2 11.3 0.00 0.00 0.00 55 1012.0
20260504223510 11 168 1.6 9.7 0.00 0.00 0.00 52 1011.9
20260504223022 11 178 1.6 12.9 0.00 0.00 0.00 51 1011.8
20260504222508 11 242 3.2 14.5 0.00 0.00 0.00 51 1011.7
20260504222011 11 352 3.2 14.5 0.00 0.00 0.00 52 1011.7
20260504221508 11 298 6.4 16.1 0.00 0.00 0.00 54 1011.6
20260504221006 11 5 6.4 16.1 0.00 0.00 0.00 56 1011.6
20260504220507 11 331 1.6 8.0 0.00 0.00 0.00 55 1011.7
20260504220012 10 90 3.2 8.0 0.00 0.00 0.00 57 1011.8
20260504215507 10 44 3.2 14.5 0.00 0.00 0.00 54 1011.9
20260504215012 10 5 1.6 14.5 0.00 0.00 0.00 53 1012.0
20260504214526 11 273 4.8 20.9 0.00 0.00 0.00 53 1012.1
20260504214007 11 294 3.2 20.9 0.00 0.00 0.00 51 1012.1
20260504213511 11 288 12.9 20.9 0.00 0.00 0.00 47 1012.6
20260504213029 11 301 9.7 17.7 0.00 0.00 0.00 44 1012.5
20260504212504 11 298 3.2 6.4 0.00 0.00 0.00 45 1012.4
20260504212007 12 155 1.6 9.7 0.00 0.00 0.00 44 1012.2
20260504211505 11 157 0.0 19.3 0.00 0.00 0.00 45 1012.1
20260504211004 11 208 3.2 19.3 0.00 0.00 0.00 45 1012.1
20260504210503 12 190 6.4 16.1 0.00 0.00 0.00 45 1012.0
20260504210014 12 94 0.0 4.8 0.00 0.00 0.00 45 1012.0
20260504205507 11 250 0.0 3.2 0.00 0.00 0.00 45 1012.0
20260504205008 11 250 0.0 4.8 0.00 0.00 0.00 45 1012.0
20260504204505 11 259 1.6 12.9 0.00 0.00 0.00 46 1012.2
20260504204003 11 341 3.2 20.9 0.00 0.00 0.00 47 1012.3
20260504203503 11 332 9.7 25.7 0.00 0.00 0.00 45 1012.5
20260504203003 12 343 16.1 25.7 0.00 0.00 0.00 42 1012.5
20260504202504 12 318 1.6 4.8 0.00 0.00 0.00 40 1012.7
20260504202002 12 312 1.6 4.8 0.00 0.00 0.00 40 1012.5
20260504201506 12 333 1.6 9.7 0.00 0.00 0.00 40 1012.5
20260504201007 12 313 1.6 12.9 0.00 0.00 0.00 40 1012.7
20260504200507 12 314 4.8 16.1 0.00 0.00 0.00 39 1012.5
20260504200014 12 277 6.4 16.1 0.00 0.00 0.00 38 1012.5
20260504195509 12 335 9.7 20.9 0.00 0.00 0.00 38 1012.4
20260504195007 12 246 8.0 20.9 0.00 0.00 0.00 37 1012.5
20260504194513 13 306 8.0 19.3 0.00 0.00 0.00 35 1012.4
20260504194006 13 303 8.0 12.9 0.00 0.00 0.00 35 1012.4
20260504193508 13 284 6.4 11.3 0.00 0.00 0.00 34 1012.3
20260504193010 13 287 3.2 11.3 0.00 0.00 0.00 33 1012.3
20260504192503 13 313 3.2 11.3 0.00 0.00 0.00 33 1012.3
20260504192005 13 231 6.4 11.3 0.00 0.00 0.00 31 1012.4
20260504191507 13 259 1.6 4.8 0.00 0.00 0.00 33 1012.4
20260504191003 13 212 1.6 6.4 0.00 0.00 0.00 33 1012.5
20260504190505 13 147 1.6 6.4 0.00 0.00 0.00 36 1012.7
20260504190009 13 89 0.0 9.7 0.00 0.00 0.00 34 1012.8
20260504185506 13 149 3.2 11.3 0.00 0.00 0.00 34 1012.8
20260504185005 12 150 3.2 11.3 0.00 0.00 0.00 38 1012.9
20260504184513 12 94 0.0 8.0 0.00 0.00 0.00 41 1013.0
20260504184012 12 69 3.2 25.7 0.00 0.00 0.00 40 1013.0
20260504183509 12 57 3.2 25.7 0.00 0.00 0.00 41 1013.2
20260504183018 12 352 11.3 19.3 0.00 0.00 0.00 40 1013.3
20260504182509 12 28 8.0 22.5 0.00 0.00 0.00 39 1013.5
20260504182010 12 267 12.9 22.5 0.00 0.00 0.00 38 1013.5
20260504181504 12 298 3.2 16.1 0.00 0.00 0.00 36 1013.5
20260504181004 12 246 4.8 37.0 0.00 0.00 0.00 36 1013.5
20260504180507 12 301 9.7 37.0 0.00 0.00 0.00 37 1013.5
20260504180006 13 310 17.7 30.6 0.00 0.00 0.00 35 1013.6
20260504175503 13 5 14.5 24.1 0.00 0.00 0.00 31 1013.3
20260504175005 13 46 12.9 20.9 0.00 0.00 0.00 32 1013.2
20260504174510 14 352 6.4 20.9 0.00 0.00 0.00 33 1012.9
20260504174008 14 290 4.8 25.7 0.00 0.00 0.00 32 1012.8
20260504173507 14 250 8.0 25.7 0.00 0.00 0.00 32 1012.8
20260504173015 14 296 11.3 19.3 0.00 0.00 0.00 31 1012.8
20260504172509 15 198 12.9 19.3 0.00 0.00 0.00 31 1012.9
20260504172009 14 192 1.6 17.7 0.00 0.00 0.00 31 1012.9
20260504171534 14 298 6.4 25.7 0.00 0.00 0.00 31 1012.9
20260504171013 14 342 6.4 20.9 0.00 0.00 0.00 32 1012.9
20260504170508 14 298 8.0 16.1 0.00 0.00 0.00 32 1012.9
20260504151008 12 319 1.6 8.0 0.00 0.00 0.00 29 1012.9
20260504150508 12 253 1.6 11.3 0.00 0.00 0.00 29 1012.9
20260504141008 7 235 3.2 16.1 0.00 0.00 0.00 39 1013.4
20260504140508 6 275 3.2 16.1 0.00 0.00 0.00 39 1013.4
20260504130505 4 313 3.2 17.7 0.00 0.00 0.00 42 1013.4
20260504110506 3 259 4.8 16.1 0.00 0.00 0.00 42 1013.1
20260504100507 2 319 0.0 3.2 0.00 0.00 0.00 45 1013.3
20260504082007 2 271 4.8 12.9 0.00 0.00 0.00 44 1014.2
20260504081528 2 310 6.4 11.3 0.00 0.00 0.00 46 1014.3
20260504081008 2 5 3.2 9.7 0.00 0.00 0.00 48 1014.3
20260504080509 2 266 3.2 9.7 0.00 0.00 0.00 47 1014.3